{"data":{"norad_id":48399,"intl_designator":"2021-038AY","name":"STARLINK-2587","alt_names":[],"object_type":"PAYLOAD","status":"ACTIVE","operator":null,"country":"US","launch_date":"2021-05-04","launch_site_code":"AFETR","launch_vehicle":null,"mission":null,"orbit_class":"UNKNOWN","rcs_meters":null,"size_class":null,"mass_kg":null,"dimensions":null,"purposes":["comms"],"wikipedia_slug":null,"has_3d_model":false,"image_url":null,"decayed_at":null,"tle_current":{"epoch":"2026-09-20T04:05:28.093056Z","epoch_age_seconds":62236,"freshness":"FRESH","line1":"1 48399U 21038AY  26263.17046404  .00002027  00000+0  77028-4 0  9990","line2":"2 48399  53.1610 147.4917 0001316  86.8192 273.2960 15.31711012298458","mean_motion":15.31711012,"eccentricity":0.0001316,"inclination_deg":53.161,"raan_deg":147.4917,"arg_perigee_deg":86.8192,"mean_anomaly_deg":273.296,"bstar":7.7028e-5,"rev_number":29845,"period_min":94.012512067779,"perigee_km":469.80586133066,"apogee_km":471.608477116,"semimajor_km":6848.8441692233,"source":"CELESTRAK","updated_at":"2026-09-20T09:00:38.946954Z"}}}